カタログに戻る

COSMOS 2160

運用中軍事PO
NORAD 21731·PAYLOAD·🇷🇺 Russia

打ち上げ Sep 28, 1991 から Plesetsk Cosmodrome

Loading…

次のパス (今後24時間)

TLE

最新Source: Space-Track

元期: Sep 14, 2026, 10:53 UTC

1 21731U 91068D   26257.45410337  .00000008  00000-0 -12127-4 0  9993
2 21731  82.5820 247.1789 0009004 160.0655 354.4921 12.64709243613810

AllMySatでCOSMOS 2160をリアルタイム追跡

Download on the App Store